Montoursville, PA

11:52 PM EDT on September 26, 2016 (GMT -0400)
Williamsport Rgnl

Weather History for KIPT - May, 2013

Change the Weather History Date:

Saturday, May 11, 2013

  Actual Average Record
Temperature  
Mean Temperature 63 °F 58 °F  
Max Temperature 69 °F 70 °F 92 °F (1993)
Min Temperature 57 °F 46 °F 29 °F (1966)
Degree Days  
Heating Degree Days 2 8  
Month to date heating degree days 62 98  
Since 1 July heating degree days 5535 5853  
Cooling Degree Days 0 1  
Month to date cooling degree days 0 6  
Year to date cooling degree days 8 11  
Growing Degree Days 14 (Base 50)    
Moisture  
Dew Point 57 °F    
Average Humidity 76    
Maximum Humidity 100    
Minimum Humidity 52    
Precipitation  
Precipitation 0.45 in 0.12 in 1.92 in (1952)
Month to date precipitation 1.67 1.25  
Year to date precipitation 11.02 12.50  
Snow  
Snow 0.00 in 0.00 in 0.00 in (2002)
Month to date snowfall 0.0 0.0  
Since 1 July snowfall 32.7 36.0  
Snow Depth 0.00 in    
Sea Level Pressure  
Sea Level Pressure 29.74 in    
Wind  
Wind Speed 7 mph (West)    
Max Wind Speed 21 mph    
Max Gust Speed 29 mph    
Visibility 8 miles    
Events Rain    
T = Trace of Precipitation, MM = Missing Value Source: NWS Daily Summary

Daily Weather History Graph

Daily Weather History Graph

Search for Another Location

Airport or City:

Trip Planner

Search our weather history database for the weather conditions in past years. The results will help you decide how hot, cold, wet, or windy it might be!

Date:

Astronomy

May. 11, 2013 Rise Set
Actual Time 5:53 AM EDT 8:15 PM EDT
Civil Twilight 5:22 AM EDT 8:46 PM EDT
Nautical Twilight 4:43 AM EDT 9:25 PM EDT
Astronomical Twilight 4:01 AM EDT 10:08 PM EDT
Moon 6:58 AM EDT (5/11) 9:54 PM EDT (5/11)
Length of Visible Light 15h 24m
Length of Day
14h 22m
Waxing Crescent, 3% of the Moon is Illuminated
May 11
Waxing Crescent
May 18
First Quarter
May 25
Full
May 31
Last Quarter
Jun 8
New

Hourly Weather History & Observations

Time (EDT) Temp. Dew Point Humidity Pressure Visibility Wind Dir Wind Speed Gust Speed Precip Events Conditions
12:54 AM 63.0 °F 59.0 °F 87% 29.81 in 9.0 mi SSE 11.5 mph 28.8 mph 0.02 in Rain Light Rain
1:13 AM 62.6 °F 59.0 °F 88% 29.80 in 6.0 mi SSE 9.2 mph 18.4 mph 0.01 in Rain Light Rain
1:40 AM 62.6 °F 59.0 °F 88% 29.79 in 4.0 mi SSE 8.1 mph - 0.04 in Rain Rain
1:54 AM 62.1 °F 59.0 °F 90% 29.78 in 6.0 mi South 13.8 mph 18.4 mph 0.06 in Rain Light Rain
2:54 AM 62.1 °F 57.9 °F 86% 29.76 in 10.0 mi SSE 15.0 mph 20.7 mph 0.03 in Rain Light Rain
3:54 AM 62.1 °F 57.9 °F 86% 29.75 in 3.0 mi SSE 13.8 mph 20.7 mph 0.04 in Rain Rain
4:54 AM 61.0 °F 59.0 °F 93% 29.74 in 10.0 mi Variable 4.6 mph - 0.02 in   Overcast
5:54 AM 61.0 °F 59.0 °F 93% 29.74 in 10.0 mi NNW 4.6 mph - 0.00 in   Overcast
6:17 AM 60.8 °F 59.0 °F 94% 29.75 in 7.0 mi Calm Calm - 0.00 in Rain Light Rain
6:54 AM 61.0 °F 60.1 °F 97% 29.75 in 10.0 mi Calm Calm - 0.00 in   Overcast
6:57 AM 60.8 °F 59.0 °F 94% 29.75 in 10.0 mi Calm Calm - N/A   Overcast
7:13 AM 60.8 °F 59.0 °F 94% 29.75 in 5.0 mi WNW 3.5 mph - 0.00 in Rain Light Rain
7:54 AM 61.0 °F 59.0 °F 93% 29.74 in 6.0 mi Calm Calm - 0.01 in Rain Light Rain
8:02 AM 62.6 °F 59.0 °F 88% 29.75 in 9.0 mi Calm Calm - 0.00 in   Overcast
8:08 AM 62.6 °F 59.0 °F 88% 29.75 in 10.0 mi Calm Calm - 0.00 in   Overcast
8:54 AM 63.0 °F 60.1 °F 90% 29.74 in 10.0 mi Calm Calm - 0.00 in   Overcast
9:54 AM 64.9 °F 60.1 °F 84% 29.73 in 10.0 mi North 4.6 mph - N/A   Overcast
9:57 AM 64.4 °F 60.8 °F 88% 29.74 in 10.0 mi Calm Calm - N/A   Overcast
10:52 AM 64.4 °F 60.8 °F 88% 29.74 in 2.0 mi West 5.8 mph - 0.01 in Rain Rain
10:54 AM 64.0 °F 60.1 °F 87% 29.74 in 1.2 mi West 4.6 mph - 0.01 in Rain Heavy Rain
10:56 AM 62.6 °F 60.8 °F 94% 29.74 in 0.8 mi West 4.6 mph - 0.03 in Rain Heavy Rain
11:01 AM 64.4 °F 60.8 °F 88% 29.74 in 4.0 mi West 5.8 mph - 0.08 in   Overcast
11:25 AM 62.6 °F 60.8 °F 94% 29.75 in 2.0 mi WSW 11.5 mph - 0.09 in Rain Rain
11:52 AM 60.8 °F 57.2 °F 88% 29.74 in 1.5 mi West 5.8 mph - 0.23 in Rain Rain
11:54 AM 61.0 °F 57.9 °F 90% 29.73 in 2.0 mi West 5.8 mph - 0.23 in Rain Rain
12:05 PM 60.8 °F 57.2 °F 88% 29.73 in 6.0 mi West 6.9 mph - 0.01 in Rain Light Rain
12:54 PM 63.0 °F 57.0 °F 81% 29.73 in 10.0 mi West 4.6 mph - 0.05 in   Overcast
1:54 PM 64.0 °F 57.0 °F 78% 29.72 in 10.0 mi West 6.9 mph - 0.00 in   Overcast
2:54 PM 66.0 °F 57.9 °F 75% 29.72 in 10.0 mi West 8.1 mph - N/A   Overcast
3:32 PM 66.2 °F 55.4 °F 68% 29.72 in 10.0 mi West 11.5 mph - N/A   Overcast
3:54 PM 66.9 °F 55.0 °F 66% 29.71 in 10.0 mi West 15.0 mph 25.3 mph N/A   Mostly Cloudy
4:54 PM 68.0 °F 51.8 °F 56% 29.71 in 10.0 mi West 15.0 mph 25.3 mph N/A   Partly Cloudy
5:54 PM 66.9 °F 50.0 °F 54% 29.72 in 10.0 mi West 13.8 mph - N/A   Scattered Clouds
6:54 PM 66.0 °F 48.0 °F 52% 29.72 in 10.0 mi West 9.2 mph - N/A   Mostly Cloudy
7:54 PM 63.0 °F 48.9 °F 60% 29.73 in 10.0 mi Calm Calm - N/A   Mostly Cloudy
8:54 PM 62.1 °F 50.0 °F 65% 29.74 in 10.0 mi West 5.8 mph - N/A   Overcast
9:54 PM 61.0 °F 48.9 °F 64% 29.75 in 10.0 mi West 4.6 mph - N/A   Overcast
10:54 PM 59.0 °F 44.1 °F 58% 29.75 in 10.0 mi WNW 8.1 mph - N/A   Overcast
11:54 PM 59.0 °F 43.0 °F 55% 29.75 in 10.0 mi West 10.4 mph - N/A   Overcast